Skip Page Navigation
NASA JPL Caltech
NASA Logo - Jet Propulsion Laboratory + View the NASA Portal
+ Center for Near-Earth Object Studies
JPL Home Earth Solar System Stars & Galaxies Technology
JPL Solar System Dynamics
BODIES ORBITS EPHEMERIDES TOOLS PHYSICAL DATA DISCOVERY FAQ SITE MAP
JPL Small-Body Database Browser
Search: [ help ]  
362369 (2010 NC45)
Classification: Main-belt Asteroid          SPK-ID: 2362369
Ephemeris | Orbit Diagram | Orbital Elements | Mission Design | Physical Parameters | Discovery Circumstances | Close-Approach Data ]

[ show orbit diagram ]
Orbital Elements at Epoch 2459200.5 (2020-Dec-17.0) TDB
Reference: JPL 15 (heliocentric ecliptic J2000)
 Element Value Uncertainty (1-sigma)   Units 
e .06405924137208963 6.8217e-08  
a 3.087572813753919 5.1719e-08 au
q 2.889785241623755 2.1385e-07 au
i 15.03417165930735 7.1302e-06 deg
node 206.459962957157 2.7672e-05 deg
peri 247.7126261948579 7.8917e-05 deg
M 242.6445470692182 8.1561e-05 deg
tp 2459846.488835849469
(2022-Sep-23.98883585)
0.00045714 TDB
period 1981.637623971118
5.43
4.9791e-05
1.363e-07
d
yr
n .1816679273976315 4.5646e-09 deg/d
Q 3.285360385884084 5.5032e-08 au
  Orbit Determination Parameters
   # obs. used (total)      148  
   data-arc span      5435 days (14.88 yr)  
   first obs. used      2005-10-22  
   last obs. used      2020-09-08  
   planetary ephem.      DE441  
   SB-pert. ephem.      SB441-N16  
   condition code      0  
   norm. resid. RMS      .68405  
   source      ORB  
   producer      Otto Matic  
   solution date      2021-Apr-14 09:39:15  

Additional Information
 Earth MOID = 1.94231 au 
 Jupiter MOID = 1.93531 au 
 T_jup = 3.170 
[ show covariance matrix ]

Ephemeris | Orbit Diagram | Orbital Elements | Mission Design | Physical Parameters | Discovery Circumstances | Close-Approach Data ]

Physical Parameter Table
Parameter Symbol Value Units Sigma Reference Notes
absolute magnitude H 16.35   n/a MPCxxxxx  
diameter diameter 3.800 km 0.904 urn:nasa:pds:neowise_diameters_albedos::2.0[mainbelt] (http://adsabs.harvard.edu/abs/2011ApJ...741...68M)  
geometric albedo albedo 0.044   0.028 urn:nasa:pds:neowise_diameters_albedos::2.0[mainbelt] (http://adsabs.harvard.edu/abs/2011ApJ...741...68M)  

362369 (2010 NC45)          Discovered 2010-Jul-09 by WISE at WISE
Reference: Last Updated: 2013-04-29

[ show close-approach data ]
Alternate Designations
 2010 NC45 = 2005 UC100 = 2010 RU113 
Ephemeris | Orbit Diagram | Orbital Elements | Mission Design | Physical Parameters | Discovery Circumstances | Close-Approach Data ]
ABOUT SSD CREDITS/AWARDS PRIVACY/COPYRIGHT GLOSSARY LINKS
FirstGov 2021-Jun-20 13:05 UT
(server date/time)  
NASA Home Page
Site Manager:   Ryan S. Park
Webmaster  Alan B. Chamberlin